Preview of NWS' New Version of Forecast
This preview is not operational and should not be used for support decisions.

Regional Weather Roundup (RWR)

Issued by National Weather Service (NWS)

                            
000
ASUS44 KMEG 201500
RWRTN 
TENNESSEE HOURLY STATE WEATHER ROUNDUP
NATIONAL WEATHER SERVICE MEMPHIS TN
1000 AM CDT THU JUN 20 2019

TNZ002-004-019-021-049-052-054-088>092-201600-
WEST TENNESSEE
  
CITY           SKY/WX    TMP DP  RH WIND       PRES   REMARKS
MEMPHIS INTL   FAIR      79  68  69 W12       29.81R                  
NWS MEMPHIS      N/A     77 N/A N/A MISG        N/A                   
JACKSON        PTSUNNY   76  70  82 W10       29.80R                  
DYERSBURG      CLOUDY    76  70  82 W9        29.80R                  
$$

TNZ008-025-027-028-033-062-065-066-201600-
NORTH MIDDLE TENNESSEE
  
CITY           SKY/WX    TMP DP  RH WIND       PRES   REMARKS
NASHVILLE      LGT RAIN  72  66  81 SW6       29.78F                  
CLARKSVILLE    PTSUNNY   70  66  87 SW9       29.75S                  
SMYRNA         LGT RAIN  72  67  84 SW6       29.80S                  
CROSSVILLE     FAIR      69  64  84 W13G21    29.87R                  
$$

TNZ061-075-076-078-094-096-097-201600-
SOUTH MIDDLE TENNESSEE
  
CITY           SKY/WX    TMP DP  RH WIND       PRES   REMARKS
$$

TNZ017-018-042-046-047-201600-
NORTHEAST TENNESSEE
  
CITY           SKY/WX    TMP DP  RH WIND       PRES   REMARKS
TRI CITIES     CLOUDY    74  67  78 SW13      29.82S                  
$$

TNZ012-013-036-069-073-074-201600-
CENTRAL EAST TENNESSEE
  
CITY           SKY/WX    TMP DP  RH WIND       PRES   REMARKS
KNOXVILLE      CLOUDY    75  67  76 SW21      29.81R                  
OAK RIDGE      FAIR      73  68  84 VRB7      29.83R                  
$$

TNZ083-085-099-201600-
SOUTHEAST TENNESSEE
  
CITY           SKY/WX    TMP DP  RH WIND       PRES   REMARKS
CHATTANOOGA    CLOUDY    78  66  66 W6        29.84R                  
$$

SKY/WX REPORTED AS FAIR MEANS FEW OR NO CLOUDS BELOW
12 THOUSAND FEET.